Time,TemperatureF,DewpointF,PressureIn,WindDirection,WindDirectionDegrees,WindSpeedMPH,WindSpeedGustMPH,Humidity,HourlyPrecipIn,Conditions,Clouds,dailyrainin,SoftwareType,DateUTC
2013-06-30 16:22:00,79.0,71.0,29.72,South,190,0.0,-999.0,76,-99.99,,,-99.99,,2013-06-30 20:22:00,
2013-06-30 16:34:00,79.0,71.0,29.72,South,178,0.0,-999.0,77,-99.99,,,-99.99,,2013-06-30 20:34:00,
2013-06-30 16:42:00,81.0,71.0,29.72,North,5,0.0,-999.0,72,-99.99,,,-99.99,,2013-06-30 20:42:00,
2013-06-30 16:52:00,81.0,71.0,29.72,North,5,0.0,-999.0,72,-99.99,,,-99.99,,2013-06-30 20:52:00,
2013-06-30 17:01:00,81.0,69.0,29.72,South,185,0.0,-999.0,67,-99.99,,,-99.99,,2013-06-30 21:01:00,
2013-06-30 17:11:00,82.0,71.0,29.71,ESE,103,0.0,-999.0,70,-99.99,,,-99.99,,2013-06-30 21:11:00,
2013-06-30 17:22:00,82.0,71.0,29.71,ESE,103,0.0,-999.0,70,-99.99,,,-99.99,,2013-06-30 21:22:00,
2013-06-30 17:34:00,81.0,69.0,29.71,ESE,103,0.0,-999.0,66,-99.99,,,-99.99,,2013-06-30 21:34:00,
2013-06-30 17:43:00,81.0,69.0,29.71,ESE,105,0.0,-999.0,67,-99.99,,,-99.99,,2013-06-30 21:43:00,
2013-06-30 17:53:00,81.0,69.0,29.71,ESE,105,0.0,-999.0,67,-99.99,,,-99.99,,2013-06-30 21:53:00,
2013-06-30 18:01:00,81.0,69.0,29.72,SSE,154,0.0,-999.0,68,-99.99,,,-99.99,,2013-06-30 22:01:00,
2013-06-30 18:11:00,80.0,69.0,29.72,SSW,192,0.0,-999.0,69,-99.99,,,-99.99,,2013-06-30 22:11:00,
2013-06-30 18:22:00,80.0,69.0,29.72,SSW,192,0.0,-999.0,69,-99.99,,,-99.99,,2013-06-30 22:22:00,
2013-06-30 18:34:00,79.0,68.0,29.73,SSW,192,0.0,-999.0,69,-99.99,,,-99.99,,2013-06-30 22:34:00,
2013-06-30 18:43:00,78.0,68.0,29.74,SSW,192,0.0,-999.0,71,-99.99,,,-99.99,,2013-06-30 22:43:00,
2013-06-30 18:53:00,78.0,68.0,29.74,SSW,192,0.0,-999.0,71,-99.99,,,-99.99,,2013-06-30 22:53:00,
2013-06-30 19:02:00,77.0,69.0,29.74,SSW,192,0.0,-999.0,76,-99.99,,,-99.99,,2013-06-30 23:02:00,
2013-06-30 19:11:00,76.0,69.0,29.74,SSW,192,0.0,-999.0,78,-99.99,,,-99.99,,2013-06-30 23:11:00,
2013-06-30 19:22:00,76.0,69.0,29.74,SSW,192,0.0,-999.0,78,-99.99,,,-99.99,,2013-06-30 23:22:00,
2013-06-30 19:33:00,75.0,69.0,29.74,South,178,0.0,-999.0,83,-99.99,,,-99.99,,2013-06-30 23:33:00,
2013-06-30 19:44:00,75.0,70.0,29.74,SE,125,1.0,-999.0,84,-99.99,,,-99.99,,2013-06-30 23:44:00,
2013-06-30 19:53:00,75.0,70.0,29.74,SE,125,1.0,-999.0,84,-99.99,,,-99.99,,2013-06-30 23:53:00,
2013-06-30 20:01:00,73.0,70.0,29.74,South,183,2.0,-999.0,89,-99.99,,,-99.99,,2013-07-01 00:01:00,
2013-06-30 20:11:00,72.0,70.0,29.75,SSW,196,1.0,-999.0,92,-99.99,,,-99.99,,2013-07-01 00:11:00,
2013-06-30 20:22:00,72.0,70.0,29.75,SSW,196,1.0,-999.0,92,-99.99,,,-99.99,,2013-07-01 00:22:00,
2013-06-30 20:33:00,71.0,69.0,29.76,SSW,208,0.0,-999.0,94,-99.99,,,-99.99,,2013-07-01 00:33:00,
2013-06-30 20:42:00,71.0,69.0,29.77,SSW,208,0.0,-999.0,94,-99.99,,,-99.99,,2013-07-01 00:42:00,
2013-06-30 20:52:00,71.0,69.0,29.77,SSW,208,0.0,-999.0,94,-99.99,,,-99.99,,2013-07-01 00:52:00,
2013-06-30 21:01:00,70.0,68.0,29.78,SW,223,0.0,-999.0,95,-99.99,,,-99.99,,2013-07-01 01:01:00,
2013-06-30 21:11:00,70.0,68.0,29.78,SW,223,0.0,-999.0,95,-99.99,,,-99.99,,2013-07-01 01:11:00,
2013-06-30 21:22:00,70.0,68.0,29.78,SW,223,0.0,-999.0,95,-99.99,,,-99.99,,2013-07-01 01:22:00,
2013-06-30 21:33:00,70.0,68.0,29.78,SW,223,0.0,-999.0,95,-99.99,,,-99.99,,2013-07-01 01:33:00,
2013-06-30 21:42:00,70.0,68.0,29.79,NNW,342,0.0,-999.0,95,-99.99,,,-99.99,,2013-07-01 01:42:00,
2013-06-30 21:52:00,70.0,68.0,29.79,NNW,342,0.0,-999.0,95,-99.99,,,-99.99,,2013-07-01 01:52:00,
2013-06-30 22:02:00,69.0,68.0,29.80,NNW,333,0.0,-999.0,96,-99.99,,,-99.99,,2013-07-01 02:02:00,
2013-06-30 22:12:00,69.0,68.0,29.80,SSW,196,0.0,-999.0,96,-99.99,,,-99.99,,2013-07-01 02:12:00,
2013-06-30 22:22:00,69.0,68.0,29.80,SSW,196,0.0,-999.0,96,-99.99,,,-99.99,,2013-07-01 02:22:00,
2013-06-30 22:33:00,68.0,67.0,29.81,SSE,167,0.0,-999.0,96,-99.99,,,-99.99,,2013-07-01 02:33:00,
2013-06-30 22:44:00,68.0,67.0,29.81,SSE,167,0.0,-999.0,96,-99.99,,,-99.99,,2013-07-01 02:44:00,
2013-06-30 22:53:00,68.0,67.0,29.81,SSE,167,0.0,-999.0,96,-99.99,,,-99.99,,2013-07-01 02:53:00,
2013-06-30 23:01:00,68.0,67.0,29.81,SSE,166,0.0,-999.0,96,-99.99,,,-99.99,,2013-07-01 03:01:00,
2013-06-30 23:11:00,67.0,66.0,29.81,SSE,167,0.0,-999.0,96,-99.99,,,-99.99,,2013-07-01 03:11:00,
2013-06-30 23:23:00,67.0,66.0,29.81,SSE,167,0.0,-999.0,96,-99.99,,,-99.99,,2013-07-01 03:23:00,
2013-06-30 23:33:00,67.0,66.0,29.81,SSE,166,0.0,-999.0,96,-99.99,,,-99.99,,2013-07-01 03:33:00,
2013-06-30 23:43:00,67.0,66.0,29.82,WNW,302,0.0,-999.0,96,-99.99,,,-99.99,,2013-07-01 03:43:00,
2013-06-30 23:52:00,67.0,66.0,29.82,WNW,302,0.0,-999.0,96,-99.99,,,-99.99,,2013-07-01 03:52:00,